DL2GPS-3 Weather Reports


time (UTC)temp
F
wind
direction
speed
knots
gust
knots
rain 1hr
in
rain 24hr
in
rain mn
in
humidity
%
barometer
mb
20260506191758 43 13.0 13.9 0.00 0.00 0.00 10 1011.0
20260506190753 43 13.0 13.9 0.00 0.00 0.00 10 1010.9
20260506185749 43 13.0 13.9 0.00 0.00 0.00 10 1010.8
20260506184743 44 13.0 13.9 0.00 0.00 0.00 10 1010.8
20260506183737 44 13.0 14.8 0.00 0.00 0.00 10 1010.6
20260506182732 44 13.0 13.9 0.00 0.00 0.00 10 1010.5
20260506181727 44 13.0 13.9 0.00 0.00 0.00 10 1010.4
20260506180723 44 13.0 13.0 0.00 0.00 0.00 10 1010.3
20260506175717 44 13.0 13.9 0.00 0.00 0.00 10 1010.2
20260506174713 44 13.0 13.9 0.00 0.00 0.00 10 1010.1
20260506173709 45 13.0 13.9 0.00 0.00 0.00 10 1009.9
20260506172703 45 13.0 13.9 0.00 0.00 0.00 10 1009.7
20260506171659 45 13.9 14.8 0.00 0.00 0.00 10 1009.7
20260506170654 45 13.0 13.9 0.00 0.00 0.00 10 1009.6
20260506165648 45 13.0 14.8 0.00 0.00 0.00 10 1009.5
20260506164643 45 13.0 14.8 0.00 0.00 0.00 10 1009.5
20260506163639 45 13.0 13.9 0.00 0.00 0.00 10 1009.6
20260506162632 45 13.0 13.0 0.00 0.00 0.00 10 1009.6
20260506161627 46 13.9 13.9 0.00 0.00 0.00 10 1009.6
20260506160622 46 13.0 14.8 0.00 0.00 0.00 10 1009.6
20260506155617 45 13.0 13.9 0.00 0.00 0.00 10 1009.7
20260506154611 45 13.0 14.8 0.00 0.00 0.00 10 1009.5
20260506153607 45 13.0 14.8 0.00 0.00 0.00 10 1009.6
20260506152602 46 13.0 13.9 0.00 0.00 0.00 10 1009.5
20260506151557 46 13.0 14.8 0.00 0.00 0.00 10 1009.4
20260506150553 47 13.0 13.9 0.00 0.00 0.00 10 1009.3
20260506145548 47 13.0 13.9 0.00 0.00 0.00 10 1009.3
20260506144543 48 13.0 13.9 0.00 0.00 0.00 10 1009.1
20260506143539 48 13.0 14.8 0.00 0.00 0.00 10 1009.1
20260506142532 48 13.0 14.8 0.00 0.00 0.00 10 1009.1
20260506141527 49 13.0 13.9 0.00 0.00 0.00 10 1009.1
20260506140522 49 13.9 14.8 0.00 0.00 0.00 10 1009.0
20260506135517 49 13.0 13.9 0.00 0.00 0.00 10 1008.9
20260506134512 49 13.0 13.9 0.00 0.00 0.00 10 1008.8
20260506133506 49 13.0 13.9 0.00 0.00 0.00 10 1008.8
20260506132501 50 13.0 13.9 0.00 0.00 0.00 10 1008.9
20260506131455 51 13.0 13.9 0.00 0.00 0.00 10 1008.8
20260506130452 50 13.0 14.8 0.00 0.00 0.00 10 1008.9
20260506125446 50 13.9 13.9 0.00 0.00 0.00 10 1008.8
20260506124441 50 13.0 14.8 0.00 0.00 0.00 10 1008.8
20260506123435 50 13.0 13.9 0.00 0.00 0.00 10 1008.8
20260506122431 50 13.9 14.8 0.00 0.00 0.00 10 1008.6
20260506121426 50 13.0 13.9 0.00 0.00 0.00 10 1008.6
20260506120421 51 13.0 13.9 0.00 0.00 0.00 10 1008.5
20260506115415 51 13.0 13.9 0.00 0.00 0.00 10 1008.5
20260506114410 51 13.0 13.9 0.00 0.00 0.00 10 1008.4
20260506113405 51 13.0 13.9 0.00 0.00 0.00 10 1008.4
20260506112400 51 13.0 13.9 0.00 0.00 0.00 10 1008.4
20260506111354 52 13.0 13.9 0.00 0.00 0.00 10 1008.3
20260506110350 53 13.0 14.8 0.00 0.00 0.00 10 1008.1
20260506105345 54 13.0 13.9 0.00 0.00 0.00 10 1008.1
20260506104340 56 13.0 14.8 0.00 0.00 0.00 10 1008.1
20260506103334 57 13.0 14.8 0.00 0.00 0.00 96 1008.1
20260506102330 57 13.0 13.9 0.00 0.00 0.00 97 1008.2
20260506101325 56 13.0 13.9 0.00 0.00 0.00 10 1008.2
20260506100320 56 13.0 13.9 0.00 0.00 0.00 10 1008.1
20260506095315 56 13.0 14.8 0.00 0.00 0.00 97 1008.1
20260506094310 57 13.0 14.8 0.00 0.00 0.00 91 1008.1
20260506093305 58 13.0 13.9 0.00 0.00 0.00 86 1008.1
20260506092300 59 13.0 13.9 0.00 0.00 0.00 81 1008.1
20260506091255 60 13.0 14.8 0.00 0.00 0.00 70 1008.1
20260506090250 61 13.0 13.9 0.00 0.00 0.00 72 1008.2
20260506085245 61 13.0 13.9 0.00 0.00 0.00 66 1008.0
20260506084240 60 13.0 13.9 0.00 0.00 0.00 69 1007.9
20260506083235 64 13.0 13.9 0.00 0.00 0.00 65 1007.8
20260506082230 60 13.0 13.9 0.00 0.00 0.00 72 1007.8
20260506081225 60 13.0 13.9 0.00 0.00 0.00 79 1007.8
20260506080220 60 13.0 13.9 0.00 0.00 0.00 81 1007.9
20260506073204 57 13.0 14.8 0.00 0.00 0.00 90 1008.1
20260506072200 57 13.9 14.8 0.00 0.00 0.00 92 1008.0
20260506071155 55 13.0 13.9 0.00 0.00 0.00 10 1008.0
20260506070151 54 13.0 13.9 0.00 0.00 0.00 10 1007.9
20260506062129 50 13.0 14.8 0.00 0.00 0.00 10 1008.0
20260506061124 50 13.0 13.9 0.00 0.00 0.00 10 1008.0
20260506060119 51 13.0 13.9 0.00 0.00 0.00 10 1008.1
20260506051056 53 13.0 14.8 0.00 0.00 0.00 10 1008.1
20260506045046 53 13.0 13.9 0.00 0.00 0.00 10 1008.1
20260506044041 47 13.0 14.8 0.00 0.00 0.00 10 1008.1
20260506043036 46 13.0 14.8 0.00 0.00 0.00 10 1008.3
20260506042031 46 13.0 13.9 0.00 0.00 0.00 10 1008.3
20260506041026 45 13.0 14.8 0.00 0.00 0.00 10 1008.5
20260506040021 45 13.0 13.9 0.00 0.00 0.00 10 1008.6
20260506035016 45 13.0 14.8 0.00 0.00 0.00 10 1008.6
20260506034011 46 13.0 14.8 0.00 0.00 0.00 10 1008.5
20260506033006 46 13.0 13.9 0.00 0.00 0.00 10 1008.4
20260506032001 47 13.0 13.9 0.00 0.00 0.00 10 1008.6
20260506030956 46 13.9 13.9 0.00 0.00 0.00 10 1008.8
20260506025951 46 13.9 15.6 0.00 0.00 0.00 10 1008.9
20260506024947 46 13.0 13.9 0.00 0.00 0.00 10 1009.0
20260506023942 46 13.0 14.8 0.00 0.00 0.00 10 1009.1
20260506022937 46 13.9 13.9 0.00 0.00 0.00 10 1009.2
20260506021931 46 13.0 13.9 0.00 0.00 0.00 10 1009.2
20260506020927 45 13.0 13.9 0.00 0.00 0.00 10 1009.3
20260506015923 45 13.9 13.9 0.00 0.00 0.00 10 1009.5
20260506014918 45 13.0 13.9 0.00 0.00 0.00 10 1009.6
20260506013912 46 13.9 13.9 0.00 0.00 0.00 10 1009.7
20260506012908 46 13.9 13.9 0.00 0.00 0.00 10 1009.7
20260506011903 45 13.0 13.9 0.00 0.00 0.00 10 1010.0
20260506010859 45 13.0 13.9 0.00 0.00 0.00 10 1009.7
20260506005853 45 13.0 13.9 0.00 0.00 0.00 10 1009.8
20260506004848 45 13.0 13.9 0.00 0.00 0.00 10 1009.8
20260506003843 45 13.0 13.9 0.00 0.00 0.00 10 1009.8
20260506002839 45 13.0 13.9 0.00 0.00 0.00 10 1009.9
20260506001833 45 13.0 14.8 0.00 0.00 0.00 10 1009.9
20260506000829 45 13.0 13.9 0.00 0.00 0.00 10 1010.0
20260505235824 45 13.0 13.0 0.00 0.00 0.00 10 1010.1
20260505234819 45 13.0 13.9 0.00 0.00 0.00 10 1010.2
20260505233814 45 13.0 14.8 0.00 0.00 0.00 10 1010.2
20260505232809 45 13.0 13.9 0.00 0.00 0.00 10 1010.5
20260505231804 46 13.0 14.8 0.00 0.00 0.00 10 1010.4
20260505230759 46 13.0 13.9 0.00 0.00 0.00 10 1010.5
20260505225754 45 13.9 13.9 0.00 0.00 0.00 10 1010.4
20260505224750 46 13.9 14.8 0.00 0.00 0.00 10 1010.5
20260505223745 46 13.0 13.9 0.00 0.00 0.00 10 1010.4
20260505222740 46 13.9 13.9 0.00 0.00 0.00 10 1010.6
20260505221735 45 13.0 13.9 0.00 0.00 0.00 10 1010.7
20260505220729 46 13.0 13.9 0.00 0.00 0.00 10 1010.7
20260505215724 46 13.0 14.8 0.00 0.00 0.00 10 1010.7
20260505214721 47 13.0 13.9 0.00 0.00 0.00 10 1010.7
20260505213720 47 13.0 13.9 0.00 0.00 0.00 10 1010.5
20260505212719 47 13.0 13.9 0.00 0.00 0.00 10 1010.5
20260505211717 47 13.0 13.9 0.00 0.00 0.00 10 1010.5
20260505210717 47 13.0 13.0 0.00 0.00 0.00 10 1010.6
20260505205716 47 13.0 14.8 0.00 0.00 0.00 10 1010.6
20260505204716 47 13.0 13.9 0.00 0.00 0.00 10 1010.5
20260505203714 47 13.0 13.9 0.00 0.00 0.00 10 1010.5
20260505202713 47 13.0 13.9 0.00 0.00 0.00 10 1010.3
20260505201712 47 13.0 13.9 0.00 0.00 0.00 10 1010.3
20260505200711 48 13.0 14.8 0.00 0.00 0.00 10 1010.2
20260505195711 48 13.0 13.9 0.00 0.00 0.00 10 1010.1
20260505194710 48 13.0 14.8 0.00 0.00 0.00 10 1010.1
20260505193709 48 13.0 13.9 0.00 0.00 0.00 10 1010.1
20260505192709 48 13.0 13.0 0.00 0.00 0.00 10 1010.0